This is the latest recevied weather packets stored in our database for station/object KC9Q. If no packets are shown the sender has not sent any weather packets the latest 10 day(s).
| Time | Temp. | Humidity | Pressure | Rain* | Wind** | Luminosity | Snow |
|---|---|---|---|---|---|---|---|
| 1777712712 | 8.89° C | 85% | 1015.7 hPa | 0 mm | - | 0 W/m² | - |
| 1777712409 | 8.89° C | 83% | 1015.9 hPa | 0 mm | - | 0 W/m² | - |
| 1777712104 | 8.89° C | 83% | 1015.7 hPa | 0 mm | - | 0 W/m² | - |
| 1777711802 | 8.89° C | 82% | 1015.6 hPa | 0 mm | - | 0 W/m² | - |
| 1777711499 | 8.33° C | 81% | 1015.8 hPa | 0 mm | - | 0 W/m² | - |
| 1777711194 | 8.89° C | 81% | 1015.8 hPa | 0 mm | - | 0 W/m² | - |
| 1777710891 | 8.89° C | 81% | 1015.9 hPa | 0 mm | - | 0 W/m² | - |
| 1777710588 | 8.33° C | 80% | 1015.9 hPa | 0 mm | - | 0 W/m² | - |
| 1777710285 | 8.33° C | 82% | 1016 hPa | 0 mm | - | 0 W/m² | - |
| 1777709982 | 8.89° C | 83% | 1016 hPa | 0 mm | - | 0 W/m² | - |
| 1777709680 | 8.89° C | 83% | 1015.9 hPa | 0 mm | - | 0 W/m² | - |
| 1777709377 | 8.89° C | 82% | 1016 hPa | 0 mm | - | 0 W/m² | - |
| 1777709074 | 8.89° C | 82% | 1016.2 hPa | 0 mm | - | 0 W/m² | - |
| 1777708771 | 8.89° C | 83% | 1016.1 hPa | 0 mm | - | 0 W/m² | - |
| 1777708468 | 8.89° C | 82% | 1015.9 hPa | 0 mm | - | 0 W/m² | - |
| 1777708167 | 8.89° C | 83% | 1016.3 hPa | 0 mm | - | 0 W/m² | - |
| 1777707864 | 9.44° C | 83% | 1016.1 hPa | 0 mm | - | 0 W/m² | - |
| 1777707560 | 9.44° C | 81% | 1016 hPa | 0 mm | - | 0 W/m² | - |
| 1777707256 | 8.89° C | 79% | 1016.3 hPa | 0 mm | - | 0 W/m² | - |
| 1777706955 | 9.44° C | 81% | 1016.4 hPa | 0 mm | - | 0 W/m² | - |
| 1777706651 | 9.44° C | 82% | 1016.5 hPa | 0 mm | - | 0 W/m² | - |
| 1777706349 | 9.44° C | 83% | 1016.4 hPa | 0 mm | - | 0 W/m² | - |
| 1777706046 | 9.44° C | 82% | 1016.6 hPa | 0 mm | - | 0 W/m² | - |
| 1777705744 | 9.44° C | 77% | 1016.4 hPa | 0 mm | - | 0 W/m² | - |
| 1777705442 | 9.44° C | 77% | 1016.3 hPa | 0 mm | - | 0 W/m² | - |
* Rain latest hour (hover to see other rain measurements)
** Current wind speed in m/s (hover to see current wind gust speed)